FW1313 Weather Reports


Display with metric or nautical units.
time (UTC)temp
F
wind
direction
speed
MPH
gust
MPH
rain 1hr
in
rain 24hr
in
rain mn
in
humidity
%
barometer
mb
20260510230359 74 165 0.0 1.0 0.00 0.00 0.00 43 1018.3
20260510223359 75 186 0.0 1.0 0.00 0.00 0.00 36 1018.1
20260510220403 76 174 0.0 1.0 0.00 0.00 0.00 37 1018.2
20260510213359 76 223 0.0 0.0 0.00 0.00 0.00 26 1018.1
20260510210359 77 98 0.0 0.0 0.00 0.00 0.00 20 1018.2
20260510203359 79 219 0.0 0.0 0.00 0.00 0.00 23 1018.1
20260510200359 80 187 0.0 0.0 0.00 0.00 0.00 23 1017.9
20260510193359 80 309 0.0 0.0 0.00 0.00 0.00 20 1017.6
20260510190359 79 281 0.0 0.0 0.00 0.00 0.00 17 1017.4
20260510183400 78 228 0.0 0.0 0.00 0.00 0.00 23 1017.3
20260510180403 78 200 0.0 0.0 0.00 0.00 0.00 21 1017.1
20260510173359 78 149 0.0 0.0 0.00 0.00 0.00 18 1016.7
20260510170359 76 215 0.0 0.0 0.00 0.00 0.00 21 1016.2
20260510163359 71 132 0.0 0.0 0.00 0.00 0.00 22 1015.9
20260510160359 70 81 0.0 0.0 0.00 0.00 0.00 23 1015.7
20260510153402 70 136 0.0 0.0 0.00 0.00 0.00 22 1015.5
20260510150359 69 75 0.0 0.0 0.00 0.00 0.00 20 1015.5
20260510143359 67 78 0.0 1.0 0.00 0.00 0.00 19 1015.1
20260510140359 66 70 0.0 0.0 0.00 0.00 0.00 18 1014.9
20260510133359 65 80 0.0 0.0 0.00 0.00 0.00 18 1014.4
20260510130359 66 72 0.0 0.0 0.00 0.00 0.00 16 1014.2
20260510123359 66 72 0.0 0.0 0.00 0.00 0.00 16 1014.0
20260510120359 64 76 0.0 0.0 0.00 0.00 0.00 17 1014.1
20260510113359 64 60 0.0 0.0 0.00 0.00 0.00 27 1014.1
20260510110359 64 58 0.0 0.0 0.00 0.00 0.00 23 1014.1
20260510103402 64 56 0.0 0.0 0.00 0.00 0.00 29 1014.2
20260510100359 64 60 0.0 0.0 0.00 0.00 0.00 30 1014.2
20260510093359 64 75 0.0 0.0 0.00 0.00 0.00 34 1014.5
20260510090402 65 75 0.0 0.0 0.00 0.00 0.00 31 1014.8
20260510083359 64 75 0.0 0.0 0.00 0.00 0.00 28 1015.3
20260510080359 64 75 0.0 0.0 0.00 0.00 0.00 23 1015.9
20260510073359 64 75 0.0 0.0 0.00 0.00 0.00 18 1016.3
20260510070400 65 77 0.0 0.0 0.00 0.00 0.00 6 1016.7
20260510063359 64 76 0.0 0.0 0.00 0.00 0.00 4 1017.0
20260510060359 64 77 0.0 0.0 0.00 0.00 0.00 3 1017.2
20260510053359 64 77 0.0 0.0 0.00 0.00 0.00 5 1017.3
20260510050359 63 121 0.0 0.0 0.00 0.00 0.00 10 1017.5
20260510043359 63 121 0.0 0.0 0.00 0.00 0.00 15 1017.4
20260510040359 63 121 0.0 0.0 0.00 0.00 0.00 17 1017.3
20260510033402 64 91 0.0 0.0 0.00 0.00 0.00 14 1017.1
20260510030359 64 91 0.0 0.0 0.00 0.00 0.00 14 1016.5
20260510023359 63 96 0.0 0.0 0.00 0.00 0.00 20 1016.2
20260510020359 63 145 0.0 0.0 0.00 0.00 0.00 59 1016.1
20260510013359 64 136 0.0 0.0 0.00 0.00 0.00 56 1016.1
20260510010359 66 134 0.0 0.0 0.00 0.00 0.00 52 1016.2
20260510003359 67 167 0.0 0.0 0.00 0.00 0.00 48 1016.2
20260510000359 69 152 0.0 0.0 0.00 0.00 0.00 40 1016.1
20260509233359 70 207 0.0 0.0 0.00 0.00 0.00 40 1016.1